Date,TemperatureHighF,TemperatureAvgF,TemperatureLowF,DewpointHighF,DewpointAvgF,DewpointLowF,HumidityHigh,HumidityAvg,HumidityLow,PressureMaxIn,PressureMinIn,WindSpeedMaxMPH,WindSpeedAvgMPH,GustSpeedMaxMPH,PrecipitationSumIn
2013-6-1,67,61,57,52,51,50,79,70,56,29.91,29.90,0,0,3,0.00
2013-6-2,91,74,54,58,52,46,82,51,30,29.75,29.61,4,1,10,0.00
2013-6-3,74,60,49,56,51,47,94,74,50,29.87,29.69,7,1,10,0.00
2013-6-4,72,60,51,56,52,48,92,77,54,29.96,29.86,4,0,8,0.00
2013-6-5,78,62,53,59,53,49,91,74,48,29.99,29.89,5,0,7,0.00
2013-6-6,83,62,52,61,53,49,91,75,47,29.95,29.82,3,0,7,0.00
2013-6-7,98,69,52,68,57,50,95,70,34,29.88,29.69,3,0,6,0.00
2013-6-8,95,69,55,68,57,52,93,70,36,29.84,29.67,7,1,10,0.00
2013-6-9,71,62,57,57,54,53,86,78,61,29.88,29.83,4,1,10,0.00
2013-6-10,63,59,56,57,55,53,96,89,77,29.95,29.77,3,0,8,0.16
2013-6-11,82,65,51,63,56,50,97,76,44,29.98,29.85,4,0,10,0.00
2013-6-12,88,66,45,51,45,38,97,56,19,29.97,29.89,12,2,17,0.00
2013-6-13,88,69,54,49,45,41,62,44,22,30.07,29.97,11,2,16,0.00
2013-6-14,92,71,53,52,47,36,84,49,16,29.99,29.78,6,1,10,0.00
2013-6-15,86,64,46,57,51,44,96,67,34,29.96,29.82,4,0,7,0.00
2013-6-16,93,68,46,55,49,45,95,58,23,30.05,29.96,9,1,14,0.00
2013-6-17,86,67,49,57,51,46,92,61,34,30.07,29.96,9,2,14,0.00
2013-6-18,79,65,50,52,49,44,93,60,30,30.00,29.92,12,2,16,0.00
2013-6-19,81,65,60,48,37,-100,62,42,27,30.00,0.00,13,-63,15,0.00
2013-6-20,90,70,54,49,45,39,79,46,19,30.00,29.88,10,1,12,0.00
2013-6-21,91,70,47,52,46,39,92,50,19,29.96,29.85,5,1,10,0.00
2013-6-22,95,73,51,55,50,42,88,50,17,29.90,29.80,8,2,14,0.00
2013-6-23,73,65,57,61,57,52,90,76,58,29.82,29.77,5,0,8,0.00
2013-6-24,63,60,58,59,57,55,97,89,82,29.89,29.77,2,0,7,0.13
2013-6-25,64,62,59,63,61,59,98,97,95,29.96,29.86,2,0,5,0.08
2013-6-26,83,70,61,69,64,60,99,83,54,30.04,29.96,6,0,7,0.11
2013-6-27,95,73,58,71,63,57,98,75,43,30.07,29.96,5,1,7,0.00
2013-6-28,104,74,60,74,58,-100,97,67,17,30.02,29.85,4,-12,10,0.00
2013-6-29,106,82,60,71,62,54,96,57,25,29.87,29.73,6,1,8,0.00
2013-6-30,99,77,58,70,62,55,91,63,36,29.80,29.70,4,0,6,0.00